This is the latest recevied weather packets stored in our database for station/object W0AKO. If no packets are shown the sender has not sent any weather packets the latest 1 day(s).
| Time | Temp. | Humidity | Pressure | Rain* | Wind** | Luminosity | Snow |
|---|---|---|---|---|---|---|---|
| 1778016312 | 23.33° C | 10% | 1010.7 hPa | 0 mm | 0.89 m/s, 239° | 656 W/m² | - |
| 1778016009 | 22.78° C | 10% | 1010.9 hPa | 0 mm | 3.13 m/s, 269° | 672 W/m² | - |
| 1778015706 | 22.78° C | 10% | 1010.9 hPa | 0 mm | 0.89 m/s, 259° | 699 W/m² | - |
| 1778015403 | 22.22° C | 10% | 1011.3 hPa | 0 mm | 5.36 m/s, 248° | 736 W/m² | - |
| 1778015099 | 22.22° C | 10% | 1011.4 hPa | 0 mm | 3.58 m/s, 223° | 759 W/m² | - |
| 1778014796 | 22.78° C | 10% | 1011 hPa | 0 mm | 5.81 m/s, 238° | 757 W/m² | - |
| 1778014495 | 22.78° C | 10% | 1011.5 hPa | 0 mm | 3.58 m/s, 209° | 764 W/m² | - |
| 1778014191 | 22.22° C | 10% | 1011.3 hPa | 0 mm | 2.24 m/s, 283° | 764 W/m² | - |
| 1778013889 | 22.22° C | 10% | 1011.5 hPa | 0 mm | 2.24 m/s, 220° | 753 W/m² | - |
| 1778013586 | 22.22° C | 10% | 1011.6 hPa | 0 mm | 2.68 m/s, 256° | 766 W/m² | - |
| 1778013282 | 21.67° C | 10% | 1011.5 hPa | 0 mm | 4.47 m/s, 270° | 783 W/m² | - |
| 1778012979 | 21.67° C | 10% | 1011.5 hPa | 0 mm | 1.34 m/s, 325° | 140 W/m² | - |
| 1778012675 | 22.78° C | 10% | 1011.7 hPa | 0 mm | 1.34 m/s, 241° | 798 W/m² | - |
| 1778012372 | 21.67° C | 10% | 1011.7 hPa | 0 mm | 3.13 m/s, 275° | 754 W/m² | - |
| 1778012069 | 21.67° C | 10% | 1011.7 hPa | 0 mm | 6.71 m/s, 223° | 775 W/m² | - |
| 1778011767 | 21.67° C | 10% | 1011.6 hPa | 0 mm | 1.34 m/s, 235° | 787 W/m² | - |
| 1778011464 | 22.22° C | 10% | 1011.6 hPa | 0 mm | 5.36 m/s, 224° | 797 W/m² | - |
| 1778011159 | 22.22° C | 10% | 1011.5 hPa | 0 mm | 3.58 m/s, 309° | 791 W/m² | - |
| 1778010857 | 21.67° C | 10% | 1011.6 hPa | 0 mm | 4.02 m/s, 338° | 797 W/m² | - |
| 1778010554 | 21.67° C | 10% | 1011.7 hPa | 0 mm | 1.34 m/s, 146° | 760 W/m² | - |
| 1778010252 | 21.11° C | 10% | 1011.9 hPa | 0 mm | 1.34 m/s, 230° | 695 W/m² | - |
| 1778009951 | 21.67° C | 10% | 1012 hPa | 0 mm | 3.58 m/s, 290° | 641 W/m² | - |
| 1778009650 | 21.11° C | 10% | 1011.8 hPa | 0 mm | 1.79 m/s, 234° | 658 W/m² | - |
| 1778009347 | 21.11° C | 10% | 1012 hPa | 0 mm | 2.24 m/s, 239° | 705 W/m² | - |
| 1778009045 | 22.22° C | 10% | 1012.2 hPa | 0 mm | 4.02 m/s, 244° | 708 W/m² | - |
* Rain latest hour (hover to see other rain measurements)
** Current wind speed in m/s (hover to see current wind gust speed)